Hourly Data Report for September 20, 2015

IQALUIT CLIMATE
NUNAVUT

63°44'50.000" N
68°32'40.000" W
33.50 m
2402592
71321
XFB

Download Data

Hourly Data (September 2015)
Hourly Data Report for September 20, 2015
TIME
LST
Temp Definition
°C
Dew Point Definition
°C
Rel Hum Definition
%
Precip. Amount Definition
mm

Wind Dir Definition
10's deg

Wind Spd Definition
km/h
Visibility Definition
km
Stn Press Definition
kPa
Hmdx Definition


Wind Chill Definition


Weather Definition


00:00 -0.3 -2.3 86 0.0 11 8   100.75   -3 LegendNANA
01:00 -0.8 -2.5 88 0.0 36 3   100.73   -2 LegendNANA
02:00 0.0 -2.4 84 0.0 13 4   100.74   -1 LegendNANA
03:00 -0.6 -2.5 87 0.0 22 3   100.75   -2 LegendNANA
04:00 0.5 -2.6 80 0.0 10 6   100.73     LegendNANA
05:00 0.3 -2.8 80 0.0 19 2   100.74     LegendNANA
06:00 1.1 -2.9 75 0.0 9 15   100.77     LegendNANA
07:00 0.5 -2.4 81 0.0 19 9   100.80     LegendNANA
08:00 0.5 -1.3 88 0.0 21 3   100.79     LegendNANA
09:00 1.0 -0.8 88 0.0 18 3   100.79     LegendNANA
10:00 1.4 -0.7 86 0.0 17 3   100.80     LegendNANA
11:00 1.3 0.2 93 0.0 15 4   100.81     LegendNANA
12:00 2.2 0.6 90 0.0 11 4   100.79     LegendNANA
13:00 1.9 0.2 88 0.0 16 11   100.78     LegendNANA
14:00 1.6 -0.1 88 0.0 14 9   100.79     LegendNANA
15:00 1.9 -0.2 86 0.0 14 6   100.80     LegendNANA
16:00 1.6 0.0 89 0.0 17 2   100.82     LegendNANA
17:00 1.1 -0.1 92 0.0 12 2   100.84     LegendNANA
18:00 0.9 0.0 94 0.0 13 2   100.86     LegendNANA
19:00 0.8 0.1 95 0.0 14 5   100.88     LegendNANA
20:00 0.2 -0.1 98 0.2 14 8   100.89     LegendNANA
21:00 0.1 -0.1 99 0.0 14 9   100.88     LegendNANA
22:00 0.2 0.0 99 0.0 15 7   100.86     LegendNANA
23:00 0.1 -0.1 98 0.0 14 4   100.84     LegendNANA

Notes on Data Quality.

Legend

  • E = Estimated
  • M = Missing
  • NA = Not Available*
  • [empty] = Indicates an unobserved value
Date modified: